User: anonymous   Login
Location: Unspecified
(0.0000°N, 0.0000°E)
Time: 18:23:54
(UTC+00:00)
Language:

STARLINK-11428 [DTC] - Orbit

View from above orbital plane
View from above orbital plane
View from above satellite
View from above satellite

Ground track
Ground track

The orbit is defined by the following mean orbital elements,

1 62417U          26145.46540773 +.00000000 +00000-0 +16119-2 0 00007
2 62417  42.9997  65.0454 0002457 281.3400  78.7192 15.70913213    08
Epoch (UTC): 25 May 2026 11:10:11
Eccentricity: 0.0002457
inclination: 42.9997°
perigee height: 355 km
apogee height: 358 km
right ascension of ascending node: 65.0454°
argument of perigee: 281.3400°
revolutions per day: 15.70913213
mean anomaly at epoch: 78.7192°

The dashed part of the orbit path shows where the satellite is in the earth's shadow,  

DLR